Tracking 19706 objects as of 17-Jun-2019
HD Live streaming from Space Station
objects crossing your sky now

SL-8 DEB

Track SL-8 DEB now!
10-day predictions


NORAD ID: 21724
Int'l Code: 1991-009BZ
Perigee: 1,433.6 km
Apogee: 1,762.4 km
Inclination: 74.0 °
Period: 118.0 minutes
Semi major axis: 7969 km
RCS: 0.1023 m2 (medium)
Launch date: February 12, 1991
Source: Commonwealth of Independent States (former USSR) (CIS)
Launch site: PLESETSK MISSILE AND SPACE COMPLEX (PKMTR)

Note: This is SATELLITE DEBRIS
aabbcc
Your satellite tracking list
Your tracking list is empty




NASA's NSSDC Master Catalog

Two Line Element Set (TLE):
1 21724U 91009BZ  19167.96022792 -.00000086 +00000-0 -64285-3 0  9990
2 21724 073.9789 101.6038 0206306 005.7523 061.5443 12.20379184234626
Source of the keplerian elements: AFSPC